Jackpot

Texas Poker Multi Jackpot System

Kini Telah hadir Jackpot SUPER ROYAL FLUSH

Kini Telah hadir Jackpot 2000 (khusus table VIP keatas).

Ikutilah global jackpot yang tersedia di system kami, dengan system jackpot terbaru dan pertama di indonesia, anda dapat membeli jackpot dengan harga 100 rupiah saja dan menangkan hadiahnya hingga puluhan juta rupiah.

Jackpot bukanlah suatu keharusan untuk dibeli, namun kami memberikan suatu fitur tambahan untuk member tercinta dari www.domino88.asia.

Terdapat tiga pilihan harga jackpot yang bisa anda beli yaitu :100,500,1000 dan 2000(khusus table VIP Keatas) rupiah.

Hadiah dari Multi jackpot system www.domino88.asia

  1. full house x 10 harga jackpot yang anda beli.
      (contoh:anda membeli 1000 maka:1000 X10 = 10.000)
  2. four of kind x 250 harga jackpot yang anda beli
      (contoh:anda membeli 1000 maka:1000 X250 = 250.000)
  3. Straight flush x 1200
      (contoh:anda membeli 1000 maka:1000 X1200 = 1.200.000)
  4. Royal flush x 10000 harga jackpot yang anda beli
      (contoh:anda membeli 1000 maka:1000 X10000 = 10.000.000)
  5. SUPER ROYAL FLUSH x 30000 harga jackpot yang anda beli
      (contoh:anda membeli 1000 maka:1000 X30000 = 30.000.000)

Kondisi kartu

  1. full house adalah kondisi kartu dimana kartu anda dan kartu tengah dengan total 7 kartu bisa mendapatkan nilai 5 kartu dengan kombinasi 1 tris(three of kind) dan 1 pair, contoh 3 kartu 10 dan 2 kartu 5
  2. Four of kind adalah kondisi kartu dimana kartu anda dan kartu tengah dengan total 7 kartu bisa mendapatkan nilai 5 kartu dengan kombinasi 4 kartu yang sama jumlah dan 1 kartu apapun juga contoh anda mendapatkan 4 buah kartu angka 3 dan 1 kartu apapun.
  3. Staright flush adalah kondisi kartu dimana kartu anda dan kartu tengah dengan total 7 kartu bisa mendapatkan nilai 5 kartu dengan kombinasi seri / staright dengan kembang yang sama contoh : urutan kartu dari angka 5, 6, 7, 8 , 9 10 dengan kembang yg sama misalnya as hati
  4. Royal flush adalah kondisi kartu dimana kartu anda dan kartu tengah dengan total 7 kartu bisa mendapatkan nilai 5 kartu dengan kombinasi seri / staright dengan kembang yang sama tetapi kartu tersebut haruslah dimulai dari 10. contoh 10, Queen, Jack, King dan aces dengan kembang yang sama
  5. Super Royal flush adalah kondisi kartu dimana Kedua kartu anda digabung dengan 3 kartu pertama meja haruslah royal flush. contoh kartu anda 10,Queen kembang sama dan 3 kartu pertama meja adalah Jack, King dan aces dengan kembang yang sama

Demikian adalah penjelasan dari Multi Jackpot www.domino88.asia terima kasih dan selamat bermain salam hoki dari kami

Texas Poker Jackpot Winner

TOP SUPER ROYAL FLUSH
No.TanggalNamaPriceWin
126/04 01:26KODIM_07Super Royal flush15,000,000
225/04 21:30TODESBAESuper Royal flush15,000,000
325/04 20:10HXZPWV2NWWSuper Royal flush30,000,000
425/04 20:04ROSAVERINASuper Royal flush15,000,000
525/04 17:31STAAR78Super Royal flush60,000,000
TOP ROYAL FLUSH
No.TanggalNamaPriceWin
126/04 09:08NARNIRoyal flush1,000,000
226/04 08:51TALOH19Royal flush5,000,000
326/04 08:39X37J6Q293JRoyal flush1,000,000
426/04 08:36SHOOTHERRoyal flush1,000,000
526/04 06:56HAQ222Royal flush5,000,000
TOP STRAIGHT FLUSH
No.TanggalNamaPriceWin
126/04 09:04HAMPURA69Straight Flush600,000
226/04 09:03MAJA8Straight Flush600,000
326/04 09:02TEMPUR123Straight Flush600,000
426/04 09:01T4DIWAN1987Straight Flush120,000
526/04 08:58TAUTONStraight Flush600,000
LATEST JACKPOT
No.TanggalNamaPriceWin
126/04 09:10M4M1P4P13Full House1,000
226/04 09:10RITHAAFour Of A Kind125,000
326/04 09:10BUE123Full House10,000
426/04 09:10RANDAAKQFull House10,000
526/04 09:10KEATSFull House10,000
626/04 09:10HKYZ014VHJFull House1,000
726/04 09:10ANTI_LEGFour Of A Kind25,000
826/04 09:10SANG87Full House20,000
926/04 09:10REHAN081Full House1,000
1026/04 09:10DITYA127Full House5,000
1126/04 09:10AJAYO02Full House5,000
1226/04 09:10L6WFGQJ632Full House5,000
1326/04 09:10KANGTA99Full House1,000
1426/04 09:10HOCKYJPFull House10,000
1526/04 09:10XV7GTFSB36Full House5,000
1626/04 09:10ALV24Full House10,000
1726/04 09:10OENA123Full House20,000
1826/04 09:09JURAGANEMGFull House20,000
1926/04 09:09FQXC2SFJC2Full House5,000
2026/04 09:09M4SBR0EFour Of A Kind125,000
2126/04 09:09BARAAPI21Full House10,000
2226/04 09:09HJ07051987Full House5,000
2326/04 09:09TAKIRUBFull House1,000
2426/04 09:09SUNYAH88Full House5,000
2526/04 09:09SHELLHX8Full House20,000
2626/04 09:09EN4KFull House1,000
2726/04 09:09IDEAS1992Full House5,000
2826/04 09:09GALANGAN23Full House5,000
2926/04 09:09MONK12Full House1,000
3026/04 09:09YURIKIREYFull House10,000
3126/04 09:09ALBERTA0Full House1,000
3226/04 09:09ATIE82Full House1,000
3326/04 09:09KIPLI01Full House1,000
3426/04 09:09GOLD77777Four Of A Kind250,000
3526/04 09:09BILEM01Full House5,000
3626/04 09:09HQAN1B0JYHFull House5,000
3726/04 09:09DHEBLENX99Full House1,000
3826/04 09:09PENYENGAT1Full House5,000
3926/04 09:09HORNET52Full House1,000
4026/04 09:09NUSLABONFull House1,000
4126/04 09:09KING3RZAFull House10,000
4226/04 09:09PAPI_MAMIFour Of A Kind125,000
4326/04 09:09JEL11J0P25Full House10,000
4426/04 09:09JAYEN15Full House10,000
4526/04 09:09YHUDI13Full House10,000
4626/04 09:09HAVISBIVFull House5,000
4726/04 09:09PLWAQGMNFull House1,000
4826/04 09:09VIRUS4Full House1,000
4926/04 09:09ALV24Full House10,000
5026/04 09:09SEMMUTFull House20,000

Domino Multi Jackpot System

Ikutilah global jackpot yang tersedia di system kami, dengan system jackpot terbaru dan pertama di indonesia, anda dapat membeli jackpot dengan harga 100 rupiah saja dan menangkan hadiahnya hingga puluhan juta rupiah.

Jackpot bukanlah suatu keharusan untuk dibeli, namun kami memberikan suatu fitur tambahan untuk member tercinta dari www.domino88.asia.

Terdapat tiga pilihan harga jackpot yang bisa anda beli yaitu :100,500 dan 1000 rupiah.

Hadiah dari Multi jackpot system www.domino88.asia

  1. Murni Kecil x 50 harga jackpot yang anda beli.
      (contoh:anda membeli 1000 maka:1000 X 50 = 50.000)
  2. Murni Besar x 50 harga jackpot yang anda beli
      (contoh:anda membeli 1000 maka:1000 X 50 = 50.000)
  3. BALAK x 100 harga jackpot yang anda beli
      (contoh:anda membeli 1000 maka:1000 X 100 = 100.000)
  4. ENAM DEWA x 6666 harga jackpot yang anda beli
      (contoh:anda membeli 1000 maka:1000 X 6666 = 6.666.000)

Demikian adalah penjelasan dari Multi Jackpot www.domino88.asia terima kasih dan selamat bermain salam hoki dari kami

Domino Jackpot Winner

TOP ENAM DEWA
No.TanggalNamaPriceWin
126/04 02:51MANGALOHmurni enam6,666,000
225/04 23:38ON99911murni enam666,600
325/04 23:25A56E14DBmurni enam666,600
425/04 22:28ZAL808murni enam6,666,000
525/04 11:34KERANGREBUmurni enam3,333,000
TOP BALAK
No.TanggalNamaPriceWin
126/04 09:01MARI21balak50,000
226/04 09:00AITFAIZIbalak10,000
326/04 08:57BOBOT899balak10,000
426/04 08:50JANUUUbalak10,000
526/04 08:38HACIS888balak100,000
LATEST JACKPOT
No.TanggalNamaPriceWin
126/04 09:10TOPPU88murni kecil50,000
226/04 09:08SEXKAUmurni kecil50,000
326/04 09:07VIO56murni kecil25,000
426/04 09:07HHB28murni besar5,000
526/04 09:06BEJOSS57murni besar5,000
626/04 09:04MARARATmurni besar25,000
726/04 09:04T4DKEI77murni besar25,000
826/04 09:01SDM09murni kecil50,000
926/04 09:01NALA98murni besar50,000
1026/04 09:01AMBROZIImurni kecil50,000
1126/04 09:01KPN72murni besar50,000
1226/04 09:01MARI21balak50,000
1326/04 09:00AITFAIZIbalak10,000
1426/04 09:00DANK_DANKmurni besar50,000
1526/04 08:58DEEIXImurni kecil50,000
1626/04 08:57BOBOT899balak10,000
1726/04 08:57NEED66murni besar50,000
1826/04 08:57SDM09murni besar50,000
1926/04 08:55PUT13murni kecil50,000
2026/04 08:55NEED66murni kecil50,000
2126/04 08:55AKMALLMmurni kecil5,000
2226/04 08:51KPN72murni besar50,000
2326/04 08:51007ALIQmurni kecil5,000
2426/04 08:50JANUUUbalak10,000
2526/04 08:50D3NBAGUS99murni besar50,000
2626/04 08:50A3201murni kecil50,000
2726/04 08:48D3NBAGUS99murni kecil50,000
2826/04 08:45KPN72murni kecil50,000
2926/04 08:44ZACXmurni kecil25,000
3026/04 08:41RAYYA25murni kecil50,000
3126/04 08:40DIDIK096murni besar5,000
3226/04 08:39AM1RUHmurni besar5,000
3326/04 08:38HACIS888balak100,000
3426/04 08:37ZACXmurni kecil25,000
3526/04 08:36YYN1murni besar50,000
3626/04 08:36KPN72murni besar50,000
3726/04 08:35BEBOROmurni besar50,000
3826/04 08:35ZAL808balak100,000
3926/04 08:34ADEUYI123murni besar25,000
4026/04 08:32SARAGIH22balak50,000
4126/04 08:32EPEN088murni kecil50,000
4226/04 08:30COBAAJA100murni kecil5,000
4326/04 08:27TOT80murni besar50,000
4426/04 08:25KEMAN03murni kecil50,000
4526/04 08:25CANP1CONmurni kecil25,000
4626/04 08:24MU5F1Kmurni kecil25,000
4726/04 08:22GETEK_02murni besar50,000
4826/04 08:21BOBOT899balak10,000
4926/04 08:18CIBEL77murni besar50,000
5026/04 08:18QIUJOS9murni kecil50,000

Ceme Multi Jackpot System

Jackpot dilihat dari gabungan kartu pemain dengan kartu bandar. Bandar harus membeli jackpot sebanyak jumlah player yang sedang duduk. Sebagai contoh bila terdapat 3 pemain duduk bermain, dan bandar memutuskan untuk membeli jackpot Rp 1.000, maka pada periode tersebut bandar akan membeli jackpot sebanyak 3xRp1.000 = Rp3.000.

Jackpot bukanlah suatu keharusan untuk dibeli, namun kami memberikan suatu fitur tambahan untuk member tercinta dari www.domino88.asia.

Terdapat tiga pilihan harga jackpot yang bisa anda beli yaitu :100,500 dan 1000 rupiah.

Hadiah dari Multi jackpot system www.domino88.asia

  1. Murni Kecil x 50 harga jackpot yang anda beli.
      (contoh:anda membeli 1000 maka:1000 X 50 = 50.000)
  2. Murni Besar x 50 harga jackpot yang anda beli
      (contoh:anda membeli 1000 maka:1000 X 50 = 50.000)
  3. BALAK x 200 harga jackpot yang anda beli
      (contoh:anda membeli 1000 maka:1000 X 200 = 200.000)
  4. ENAM DEWA x 6666 harga jackpot yang anda beli
      (contoh:anda membeli 1000 maka:1000 X 6666 = 6.666.000)

Demikian adalah penjelasan dari Multi Jackpot www.domino88.asia terima kasih dan selamat bermain salam hoki dari kami

Ceme Jackpot Winner

TOP ENAM DEWA
No.TanggalNamaPriceWin
126/04 09:01LANMEZmurni enam666,600
226/04 09:01CEMONK76murni enam6,666,000
326/04 07:50SETIA112murni enam3,333,000
426/04 06:30ANJAUKmurni enam3,333,000
526/04 05:49E6C8A0FCmurni enam666,600
TOP BALAK
No.TanggalNamaPriceWin
126/04 09:09QJQJ9balak200,000
226/04 09:08MANY93balak200,000
326/04 09:06ZJCQIU8H99balak100,000
426/04 09:06UGKKO41XL4balak100,000
526/04 09:03SALTIGRADAbalak200,000
LATEST JACKPOT
No.TanggalNamaPriceWin
126/04 09:10COKYAUmurni kecil5,000
226/04 09:10WIP86murni kecil50,000
326/04 09:10MATRIC99murni kecil50,000
426/04 09:10DAGIL007murni kecil50,000
526/04 09:10BHOCAH303murni kecil50,000
626/04 09:10UPINIPIN02murni kecil25,000
726/04 09:10PAPER83murni kecil25,000
826/04 09:10ALLBY01murni kecil25,000
926/04 09:10PAPER83murni kecil25,000
1026/04 09:09SELAW24murni kecil50,000
1126/04 09:09LANMEZmurni kecil5,000
1226/04 09:09RADIO477murni kecil25,000
1326/04 09:09POXSmurni kecil5,000
1426/04 09:09NGENTIT99murni besar25,000
1526/04 09:09QJQJ9balak200,000
1626/04 09:09LURIENZAmurni kecil50,000
1726/04 09:09ANWAR086murni kecil25,000
1826/04 09:09YU2N33Nmurni besar50,000
1926/04 09:09PERANGYUmurni besar50,000
2026/04 09:08NAUM05murni besar25,000
2126/04 09:08RUDI_1986murni besar25,000
2226/04 09:08CHYKO86murni kecil25,000
2326/04 09:08NINNA19murni kecil5,000
2426/04 09:08MANY93balak200,000
2526/04 09:08MH389murni kecil50,000
2626/04 09:08ADRI2688murni kecil50,000
2726/04 09:08MH389murni kecil50,000
2826/04 09:08WNIG2YJNYLmurni kecil50,000
2926/04 09:07ZJCQIU8H99murni kecil25,000
3026/04 09:07ABIEZARDmurni besar50,000
3126/04 09:07V1AN899murni kecil50,000
3226/04 09:07PAGOLLA11murni besar5,000
3326/04 09:07CAZCEZCOZmurni besar5,000
3426/04 09:07A901FBC1murni kecil50,000
3526/04 09:06WIP86murni kecil50,000
3626/04 09:06BONG080YULmurni kecil5,000
3726/04 09:06BONG080YULmurni kecil5,000
3826/04 09:06ZJCQIU8H99balak100,000
3926/04 09:06UGKKO41XL4balak100,000
4026/04 09:06WIP86murni kecil50,000
4126/04 09:06HIGH101murni kecil50,000
4226/04 09:05BOGEL0176murni kecil5,000
4326/04 09:05CHYKO86murni kecil25,000
4426/04 09:05NINNA19murni kecil5,000
4526/04 09:05GILANGG021murni kecil50,000
4626/04 09:05GENDEN9murni kecil50,000
4726/04 09:05MESE9M9896murni kecil5,000
4826/04 09:04MANY93murni kecil50,000
4926/04 09:04EM0Omurni besar50,000
5026/04 09:03SALTIGRADAbalak200,000